Time,TemperatureF,DewpointF,PressureIn,WindDirection,WindDirectionDegrees,WindSpeedMPH,WindSpeedGustMPH,Humidity,HourlyPrecipIn,Conditions,Clouds,dailyrainin,SoftwareType,DateUTC
2013-01-20 00:01:00,41.4,7.2,29.81,NW,315,3.5,3.5,24,0.00,CLR,,0.00,WeatherDisplay:10.37,2013-01-20 05:01:00,
2013-01-20 00:03:00,41.4,7.2,29.81,South,180,11.5,11.5,24,0.00,CLR,,0.00,WeatherDisplay:10.37,2013-01-20 05:03:00,
2013-01-20 00:08:00,41.4,7.2,29.81,SW,225,8.1,8.1,24,0.00,CLR,,0.00,WeatherDisplay:10.37,2013-01-20 05:08:00,
2013-01-20 00:13:00,41.5,7.4,29.80,West,270,5.8,5.8,24,0.00,CLR,,0.00,WeatherDisplay:10.37,2013-01-20 05:13:00,
2013-01-20 00:18:00,41.4,7.2,29.80,SW,225,10.4,10.4,24,0.00,CLR,,0.00,WeatherDisplay:10.37,2013-01-20 05:18:00,
2013-01-20 00:23:00,41.4,7.2,29.80,South,180,5.8,5.8,24,0.00,CLR,,0.00,WeatherDisplay:10.37,2013-01-20 05:23:00,
2013-01-20 00:28:00,41.4,7.2,29.80,SSE,158,9.2,9.2,24,0.00,CLR,,0.00,WeatherDisplay:10.37,2013-01-20 05:28:00,
2013-01-20 00:33:00,41.4,7.2,29.79,SE,135,5.8,5.8,24,0.00,CLR,,0.00,WeatherDisplay:10.37,2013-01-20 05:33:00,
2013-01-20 00:38:00,41.5,7.4,29.79,South,180,6.9,6.9,24,0.00,CLR,,0.00,WeatherDisplay:10.37,2013-01-20 05:38:00,
2013-01-20 00:43:00,41.5,6.4,29.79,South,180,4.6,4.6,23,0.00,CLR,,0.00,WeatherDisplay:10.37,2013-01-20 05:43:00,
2013-01-20 00:48:00,41.5,6.4,29.78,SSE,158,5.8,5.8,23,0.00,CLR,,0.00,WeatherDisplay:10.37,2013-01-20 05:48:00,
2013-01-20 00:53:00,41.4,7.2,29.78,SW,225,3.8,3.8,24,0.00,CLR,,0.00,WeatherDisplay:10.37,2013-01-20 05:53:00,
2013-01-20 00:58:00,41.4,7.2,29.78,South,180,3.5,3.5,24,0.00,CLR,,0.00,WeatherDisplay:10.37,2013-01-20 05:58:00,
2013-01-20 01:03:00,41.4,7.2,29.78,ENE,68,8.1,0.0,24,0.00,CLR,,0.00,WeatherDisplay:10.37,2013-01-20 06:03:00,
2013-01-20 01:08:00,41.4,7.2,29.77,South,180,8.1,8.1,24,0.00,CLR,,0.00,WeatherDisplay:10.37,2013-01-20 06:08:00,
2013-01-20 01:13:00,41.4,7.2,29.77,SW,225,10.4,10.4,24,0.00,CLR,,0.00,WeatherDisplay:10.37,2013-01-20 06:13:00,
2013-01-20 01:18:00,41.4,7.2,29.76,SW,225,8.1,8.1,24,0.00,CLR,,0.00,WeatherDisplay:10.37,2013-01-20 06:18:00,
2013-01-20 01:23:00,41.4,6.3,29.76,East,90,5.8,5.8,23,0.00,CLR,,0.00,WeatherDisplay:10.37,2013-01-20 06:23:00,
2013-01-20 01:28:00,41.4,7.2,29.76,South,180,6.9,6.9,24,0.00,CLR,,0.00,WeatherDisplay:10.37,2013-01-20 06:28:00,
2013-01-20 01:33:00,41.4,7.2,29.75,SW,225,7.6,7.6,24,0.00,CLR,,0.00,WeatherDisplay:10.37,2013-01-20 06:33:00,
2013-01-20 01:38:00,41.4,7.2,29.75,South,180,9.2,9.2,24,0.00,CLR,,0.00,WeatherDisplay:10.37,2013-01-20 06:38:00,
2013-01-20 01:43:00,41.4,7.2,29.75,NW,315,5.8,5.8,24,0.00,CLR,,0.00,WeatherDisplay:10.37,2013-01-20 06:43:00,
2013-01-20 01:48:00,41.4,7.2,29.75,South,180,5.8,5.8,24,0.00,CLR,,0.00,WeatherDisplay:10.37,2013-01-20 06:48:00,
2013-01-20 01:53:00,41.4,7.2,29.75,South,180,8.1,8.1,24,0.00,CLR,,0.00,WeatherDisplay:10.37,2013-01-20 06:53:00,
2013-01-20 01:58:00,41.4,7.2,29.75,South,180,6.9,6.9,24,0.00,CLR,,0.00,WeatherDisplay:10.37,2013-01-20 06:58:00,
2013-01-20 02:03:00,41.4,7.2,29.75,South,180,6.9,6.9,24,0.00,CLR,,0.00,WeatherDisplay:10.37,2013-01-20 07:03:00,
2013-01-20 02:08:00,41.4,7.2,29.75,SW,225,5.8,5.8,24,0.00,CLR,,0.00,WeatherDisplay:10.37,2013-01-20 07:08:00,
2013-01-20 02:13:00,41.4,7.2,29.74,South,180,5.8,5.8,24,0.00,CLR,,0.00,WeatherDisplay:10.37,2013-01-20 07:13:00,
2013-01-20 02:18:00,41.4,7.2,29.75,South,180,5.8,5.8,24,0.00,CLR,,0.00,WeatherDisplay:10.37,2013-01-20 07:18:00,
2013-01-20 02:23:00,41.4,7.2,29.75,East,90,10.4,10.4,24,0.00,CLR,,0.00,WeatherDisplay:10.37,2013-01-20 07:23:00,
2013-01-20 02:28:00,41.5,7.4,29.74,North,0,6.9,6.9,24,0.00,CLR,,0.00,WeatherDisplay:10.37,2013-01-20 07:28:00,
2013-01-20 02:33:00,41.4,7.2,29.73,South,180,8.1,8.1,24,0.00,CLR,,0.00,WeatherDisplay:10.37,2013-01-20 07:33:00,
2013-01-20 02:38:00,41.4,7.2,29.74,South,180,8.1,8.1,24,0.00,CLR,,0.00,WeatherDisplay:10.37,2013-01-20 07:38:00,
2013-01-20 02:43:00,41.4,7.2,29.74,South,180,5.8,0.0,24,0.00,CLR,,0.00,WeatherDisplay:10.37,2013-01-20 07:43:00,
2013-01-20 02:48:00,41.4,7.2,29.73,SE,135,5.8,5.8,24,0.00,CLR,,0.00,WeatherDisplay:10.37,2013-01-20 07:48:00,
2013-01-20 02:53:00,41.4,7.2,29.73,SE,135,3.5,3.5,24,0.00,CLR,,0.00,WeatherDisplay:10.37,2013-01-20 07:53:00,
2013-01-20 02:58:00,41.2,7.1,29.73,SW,225,6.9,6.9,24,0.00,CLR,,0.00,WeatherDisplay:10.37,2013-01-20 07:58:00,
2013-01-20 03:03:00,41.4,7.2,29.73,South,180,8.1,8.1,24,0.00,CLR,,0.00,WeatherDisplay:10.37,2013-01-20 08:03:00,
2013-01-20 03:08:00,41.5,7.4,29.73,South,180,5.8,5.8,24,0.00,CLR,,0.00,WeatherDisplay:10.37,2013-01-20 08:08:00,
2013-01-20 03:13:00,41.5,6.4,29.72,West,270,5.8,5.8,23,0.00,CLR,,0.00,WeatherDisplay:10.37,2013-01-20 08:13:00,
2013-01-20 03:19:00,41.5,6.4,29.72,SW,225,8.1,8.1,23,0.00,CLR,,0.00,WeatherDisplay:10.37,2013-01-20 08:19:00,
2013-01-20 03:24:00,41.7,6.6,29.72,South,180,5.8,5.8,23,0.00,CLR,,0.00,WeatherDisplay:10.37,2013-01-20 08:24:00,
2013-01-20 03:29:00,41.7,6.6,29.72,South,180,11.5,11.5,23,0.00,CLR,,0.00,WeatherDisplay:10.37,2013-01-20 08:29:00,
2013-01-20 03:34:00,41.7,6.6,29.72,SW,225,10.4,10.4,23,0.00,CLR,,0.00,WeatherDisplay:10.37,2013-01-20 08:34:00,
2013-01-20 03:39:00,41.7,6.6,29.71,SW,225,8.1,8.1,23,0.00,CLR,,0.00,WeatherDisplay:10.37,2013-01-20 08:39:00,
2013-01-20 03:44:00,41.7,6.6,29.71,South,180,8.1,8.1,23,0.00,CLR,,0.00,WeatherDisplay:10.37,2013-01-20 08:44:00,
2013-01-20 03:49:00,41.7,6.6,29.71,SE,135,4.6,4.6,23,0.00,CLR,,0.00,WeatherDisplay:10.37,2013-01-20 08:49:00,
2013-01-20 03:54:00,41.5,6.4,29.71,SW,225,4.6,4.6,23,0.00,CLR,,0.00,WeatherDisplay:10.37,2013-01-20 08:54:00,
2013-01-20 03:59:00,41.5,6.4,29.71,South,180,6.9,6.9,23,0.00,CLR,,0.00,WeatherDisplay:10.37,2013-01-20 08:59:00,
2013-01-20 04:04:00,41.7,5.6,29.71,SW,225,4.6,4.6,22,0.00,CLR,,0.00,WeatherDisplay:10.37,2013-01-20 09:04:00,
2013-01-20 04:09:00,41.7,5.6,29.70,SE,135,5.8,5.8,22,0.00,CLR,,0.00,WeatherDisplay:10.37,2013-01-20 09:09:00,
2013-01-20 04:14:00,41.5,6.4,29.70,SE,135,8.1,8.1,23,0.00,CLR,,0.00,WeatherDisplay:10.37,2013-01-20 09:14:00,
2013-01-20 04:19:00,41.5,6.4,29.70,SW,225,5.8,5.8,23,0.00,CLR,,0.00,WeatherDisplay:10.37,2013-01-20 09:19:00,
2013-01-20 04:24:00,41.7,5.6,29.69,SSW,202,10.4,10.4,22,0.00,CLR,,0.00,WeatherDisplay:10.37,2013-01-20 09:24:00,
2013-01-20 04:29:00,41.9,5.8,29.69,South,180,8.1,8.1,22,0.00,CLR,,0.00,WeatherDisplay:10.37,2013-01-20 09:29:00,
2013-01-20 04:34:00,42.1,5.9,29.69,South,180,6.9,6.9,22,0.00,CLR,,0.00,WeatherDisplay:10.37,2013-01-20 09:34:00,
2013-01-20 04:39:00,42.1,5.9,29.69,WSW,248,5.8,5.8,22,0.00,CLR,,0.00,WeatherDisplay:10.37,2013-01-20 09:39:00,
2013-01-20 04:44:00,42.1,5.9,29.69,SSW,202,5.8,5.8,22,0.00,CLR,,0.00,WeatherDisplay:10.37,2013-01-20 09:44:00,
2013-01-20 04:49:00,42.1,4.9,29.69,West,270,4.6,4.6,21,0.00,CLR,,0.00,WeatherDisplay:10.37,2013-01-20 09:49:00,
2013-01-20 04:54:00,42.4,5.2,29.69,South,180,15.0,15.0,21,0.00,CLR,,0.00,WeatherDisplay:10.37,2013-01-20 09:54:00,
2013-01-20 04:59:00,42.4,5.2,29.68,SW,225,10.4,10.4,21,0.00,CLR,,0.00,WeatherDisplay:10.37,2013-01-20 09:59:00,
2013-01-20 05:04:00,42.4,4.1,29.68,SW,225,13.8,13.8,20,0.00,CLR,,0.00,WeatherDisplay:10.37,2013-01-20 10:04:00,
2013-01-20 05:09:00,42.4,4.1,29.67,South,180,10.4,10.4,20,0.00,CLR,,0.00,WeatherDisplay:10.37,2013-01-20 10:09:00,
2013-01-20 05:14:00,42.4,4.1,29.67,SE,135,5.8,5.8,20,0.00,CLR,,0.00,WeatherDisplay:10.37,2013-01-20 10:14:00,
2013-01-20 05:19:00,42.3,5.0,29.67,South,180,5.8,5.8,21,0.00,CLR,,0.00,WeatherDisplay:10.37,2013-01-20 10:19:00,
2013-01-20 05:24:00,42.3,5.0,29.67,South,180,8.1,8.1,21,0.00,CLR,,0.00,WeatherDisplay:10.37,2013-01-20 10:24:00,
2013-01-20 05:29:00,42.4,4.1,29.67,WSW,248,11.5,11.5,20,0.00,CLR,,0.00,WeatherDisplay:10.37,2013-01-20 10:29:00,
2013-01-20 05:34:00,42.4,4.1,29.66,South,180,4.6,4.6,20,0.00,CLR,,0.00,WeatherDisplay:10.37,2013-01-20 10:34:00,
2013-01-20 05:39:00,42.3,5.0,29.67,SW,225,12.7,12.7,21,0.00,CLR,,0.00,WeatherDisplay:10.37,2013-01-20 10:39:00,
2013-01-20 05:44:00,42.4,4.1,29.66,SSW,202,6.9,6.9,20,0.00,CLR,,0.00,WeatherDisplay:10.37,2013-01-20 10:44:00,
2013-01-20 05:49:00,42.4,4.1,29.66,South,180,8.1,8.1,20,0.00,CLR,,0.00,WeatherDisplay:10.37,2013-01-20 10:49:00,
2013-01-20 05:54:00,42.4,4.1,29.66,South,180,6.9,6.9,20,0.00,CLR,,0.00,WeatherDisplay:10.37,2013-01-20 10:54:00,
2013-01-20 05:59:00,42.4,4.1,29.66,South,180,6.9,6.9,20,0.00,CLR,,0.00,WeatherDisplay:10.37,2013-01-20 10:59:00,
2013-01-20 06:04:00,42.3,4.0,29.66,South,180,5.4,5.4,20,0.00,CLR,,0.00,WeatherDisplay:10.37,2013-01-20 11:04:00,
2013-01-20 06:09:00,42.3,4.0,29.66,SW,225,5.8,5.8,20,0.00,CLR,,0.00,WeatherDisplay:10.37,2013-01-20 11:09:00,
2013-01-20 06:14:00,42.3,5.0,29.66,SSW,202,6.9,6.9,21,0.00,CLR,,0.00,WeatherDisplay:10.37,2013-01-20 11:14:00,
2013-01-20 06:19:00,42.3,4.0,29.65,South,180,5.8,5.8,20,0.00,CLR,,0.00,WeatherDisplay:10.37,2013-01-20 11:19:00,
2013-01-20 06:24:00,42.3,4.0,29.65,South,180,6.9,6.9,20,0.00,CLR,,0.00,WeatherDisplay:10.37,2013-01-20 11:24:00,
2013-01-20 06:29:00,42.3,4.0,29.65,South,180,8.1,8.1,20,0.00,CLR,,0.00,WeatherDisplay:10.37,2013-01-20 11:29:00,
2013-01-20 06:34:00,42.3,4.0,29.65,SW,225,8.1,8.1,20,0.00,CLR,,0.00,WeatherDisplay:10.37,2013-01-20 11:34:00,
2013-01-20 06:39:00,42.1,3.8,29.65,South,180,6.9,6.9,20,0.00,CLR,,0.00,WeatherDisplay:10.37,2013-01-20 11:39:00,
2013-01-20 06:44:00,42.3,4.0,29.65,SW,225,3.5,3.5,20,0.00,CLR,,0.00,WeatherDisplay:10.37,2013-01-20 11:44:00,
2013-01-20 06:49:00,42.3,4.0,29.65,SSW,202,8.1,8.1,20,0.00,CLR,,0.00,WeatherDisplay:10.37,2013-01-20 11:49:00,
2013-01-20 06:54:00,42.3,2.9,29.65,South,180,8.1,8.1,19,0.00,CLR,,0.00,WeatherDisplay:10.37,2013-01-20 11:54:00,
2013-01-20 06:59:00,42.4,3.0,29.65,SW,225,8.1,8.1,19,0.00,CLR,,0.00,WeatherDisplay:10.37,2013-01-20 11:59:00,
2013-01-20 07:04:00,42.3,2.9,29.65,SE,135,8.1,8.1,19,0.00,CLR,,0.00,WeatherDisplay:10.37,2013-01-20 12:04:00,
2013-01-20 07:09:00,42.3,2.9,29.65,SSW,202,10.4,10.4,19,0.00,CLR,,0.00,WeatherDisplay:10.37,2013-01-20 12:09:00,
2013-01-20 07:14:00,42.3,2.9,29.65,SSW,202,9.2,9.2,19,0.00,CLR,,0.00,WeatherDisplay:10.37,2013-01-20 12:14:00,
2013-01-20 07:19:00,42.3,2.9,29.65,South,180,10.4,10.4,19,0.00,CLR,,0.00,WeatherDisplay:10.37,2013-01-20 12:19:00,
2013-01-20 07:24:00,42.3,2.9,29.65,South,180,10.4,10.4,19,0.00,CLR,,0.00,WeatherDisplay:10.37,2013-01-20 12:24:00,
2013-01-20 07:29:00,42.4,3.0,29.65,South,180,9.2,9.2,19,0.00,CLR,,0.00,WeatherDisplay:10.37,2013-01-20 12:29:00,
2013-01-20 07:34:00,42.3,2.9,29.65,South,180,10.4,10.4,19,0.00,CLR,,0.00,WeatherDisplay:10.37,2013-01-20 12:34:00,
2013-01-20 07:39:00,42.4,3.0,29.65,SSW,202,6.9,6.9,19,0.00,CLR,,0.00,WeatherDisplay:10.37,2013-01-20 12:39:00,
2013-01-20 07:44:00,42.4,3.0,29.64,NW,315,8.1,8.1,19,0.00,CLR,,0.00,WeatherDisplay:10.37,2013-01-20 12:44:00,
2013-01-20 07:49:00,42.4,3.0,29.64,WSW,248,8.1,8.1,19,0.00,CLR,,0.00,WeatherDisplay:10.37,2013-01-20 12:49:00,
2013-01-20 07:54:00,42.6,2.0,29.64,East,90,12.7,12.7,18,0.00,CLR,,0.00,WeatherDisplay:10.37,2013-01-20 12:54:00,
2013-01-20 07:59:00,43.0,2.3,29.64,South,180,12.7,12.7,18,0.00,CLR,,0.00,WeatherDisplay:10.37,2013-01-20 12:59:00,
2013-01-20 08:04:00,43.0,1.1,29.64,South,180,12.7,12.7,17,0.00,CLR,,0.00,WeatherDisplay:10.37,2013-01-20 13:04:00,
2013-01-20 08:09:00,43.2,1.2,29.64,South,180,11.5,11.5,17,0.00,CLR,,0.00,WeatherDisplay:10.37,2013-01-20 13:09:00,
2013-01-20 08:14:00,43.3,0.1,29.64,South,180,8.1,8.1,16,0.00,CLR,,0.00,WeatherDisplay:10.37,2013-01-20 13:14:00,
2013-01-20 08:19:00,43.5,0.2,29.63,South,180,10.4,10.4,16,0.00,CLR,,0.00,WeatherDisplay:10.37,2013-01-20 13:19:00,
2013-01-20 08:24:00,43.7,0.3,29.64,South,180,11.5,11.5,16,0.00,CLR,,0.00,WeatherDisplay:10.37,2013-01-20 13:24:00,
2013-01-20 08:29:00,43.9,-0.9,29.64,South,180,8.1,8.1,15,0.00,CLR,,0.00,WeatherDisplay:10.37,2013-01-20 13:29:00,
2013-01-20 08:34:00,44.1,-2.2,29.64,South,180,12.7,12.7,14,0.00,CLR,,0.00,WeatherDisplay:10.37,2013-01-20 13:34:00,
2013-01-20 08:40:00,44.2,-2.1,29.64,SE,135,10.4,10.4,14,0.00,CLR,,0.00,WeatherDisplay:10.37,2013-01-20 13:40:00,
2013-01-20 08:45:00,44.6,-1.8,29.65,South,180,6.9,6.9,14,0.00,CLR,,0.00,WeatherDisplay:10.37,2013-01-20 13:45:00,
2013-01-20 08:50:00,44.8,-3.2,29.64,South,180,10.4,10.4,13,0.00,CLR,,0.00,WeatherDisplay:10.37,2013-01-20 13:50:00,
2013-01-20 08:55:00,45.1,-2.9,29.64,SSW,202,5.8,5.8,13,0.00,CLR,,0.00,WeatherDisplay:10.37,2013-01-20 13:55:00,
2013-01-20 09:00:00,45.5,-4.3,29.64,SE,135,5.8,5.8,12,0.00,CLR,,0.00,WeatherDisplay:10.37,2013-01-20 14:00:00,
2013-01-20 09:05:00,45.9,-5.8,29.64,South,180,9.2,9.2,11,0.00,CLR,,0.00,WeatherDisplay:10.37,2013-01-20 14:05:00,
2013-01-20 09:10:00,46.2,-7.5,29.64,South,180,5.8,5.8,10,0.00,CLR,,0.00,WeatherDisplay:10.37,2013-01-20 14:10:00,
2013-01-20 09:15:00,46.8,-7.1,29.65,South,180,13.8,13.8,10,0.00,CLR,,0.00,WeatherDisplay:10.37,2013-01-20 14:15:00,
2013-01-20 09:20:00,47.1,-6.8,29.64,NW,315,9.2,9.2,10,0.00,CLR,,0.00,WeatherDisplay:10.37,2013-01-20 14:20:00,
2013-01-20 09:25:00,47.5,-6.5,29.65,South,180,8.1,8.1,10,0.00,CLR,,0.00,WeatherDisplay:10.37,2013-01-20 14:25:00,
2013-01-20 09:30:00,47.8,-6.2,29.65,SE,135,5.8,5.8,10,0.00,CLR,,0.00,WeatherDisplay:10.37,2013-01-20 14:30:00,
2013-01-20 09:35:00,48.2,-6.0,29.65,East,90,15.0,15.0,10,0.00,CLR,,0.00,WeatherDisplay:10.37,2013-01-20 14:35:00,
2013-01-20 09:40:00,48.6,-5.7,29.65,SSE,158,12.7,12.7,10,0.00,CLR,,0.00,WeatherDisplay:10.37,2013-01-20 14:40:00,
2013-01-20 09:45:00,48.9,-5.4,29.65,NW,315,8.1,8.1,10,0.00,CLR,,0.00,WeatherDisplay:10.37,2013-01-20 14:45:00,
2013-01-20 09:50:00,49.1,-5.3,29.65,South,180,15.0,15.0,10,0.00,CLR,,0.00,WeatherDisplay:10.37,2013-01-20 14:50:00,
2013-01-20 09:55:00,49.8,-4.7,29.66,SW,225,12.7,12.7,10,0.00,CLR,,0.00,WeatherDisplay:10.37,2013-01-20 14:55:00,
2013-01-20 10:00:00,50.0,-4.6,29.65,South,180,8.1,8.1,10,0.00,CLR,,0.00,WeatherDisplay:10.37,2013-01-20 15:00:00,
2013-01-20 10:05:00,50.4,-4.3,29.65,SW,225,8.1,8.1,10,0.00,CLR,,0.00,WeatherDisplay:10.37,2013-01-20 15:05:00,
2013-01-20 10:10:00,50.7,-4.0,29.65,South,180,15.0,15.0,10,0.00,CLR,,0.00,WeatherDisplay:10.37,2013-01-20 15:10:00,
2013-01-20 10:15:00,51.1,-3.7,29.65,South,183,6.0,16.0,10,0.00,CLR,,0.00,WeatherDisplay:10.37,2013-01-20 15:15:00,
2013-01-20 10:20:00,51.4,-3.4,29.65,SE,135,10.4,10.4,10,0.00,CLR,,0.00,WeatherDisplay:10.37,2013-01-20 15:20:00,
2013-01-20 10:30:00,54.1,54.1,29.64,SSE,158,15.0,15.0,100,0.00,CLR,,0.00,WeatherDisplay:10.37,2013-01-20 15:30:00,
2013-01-20 10:35:00,55.0,55.0,29.64,SE,135,10.4,10.4,100,0.00,CLR,,0.00,WeatherDisplay:10.37,2013-01-20 15:35:00,
2013-01-20 10:40:00,55.8,55.8,29.63,SE,135,12.7,12.7,100,0.00,CLR,,0.00,WeatherDisplay:10.37,2013-01-20 15:40:00,
2013-01-20 10:45:00,56.4,56.4,29.63,South,191,3.0,14.0,100,0.00,CLR,,0.00,WeatherDisplay:10.37,2013-01-20 15:45:00,
2013-01-20 10:50:00,57.2,57.2,29.63,SE,135,11.5,11.5,100,0.00,CLR,,0.00,WeatherDisplay:10.37,2013-01-20 15:50:00,
2013-01-20 10:55:00,57.7,57.7,29.63,South,180,16.1,16.1,100,0.00,CLR,,0.00,WeatherDisplay:10.37,2013-01-20 15:55:00,
2013-01-20 11:00:00,57.7,57.7,29.63,SSW,195,3.0,16.0,100,0.00,CLR,,0.00,WeatherDisplay:10.37,2013-01-20 16:00:00,
2013-01-20 11:05:00,58.1,58.1,29.62,South,180,12.7,12.7,100,0.00,CLR,,0.00,WeatherDisplay:10.37,2013-01-20 16:05:00,
2013-01-20 11:10:00,58.8,58.8,29.62,South,180,8.1,8.1,100,0.00,CLR,,0.00,WeatherDisplay:10.37,2013-01-20 16:10:00,
2013-01-20 11:15:00,59.4,59.4,29.62,SE,135,20.7,20.7,100,0.00,CLR,,0.00,WeatherDisplay:10.37,2013-01-20 16:15:00,
2013-01-20 11:20:00,59.7,59.7,29.61,SSE,158,20.7,20.7,100,0.00,CLR,,0.00,WeatherDisplay:10.37,2013-01-20 16:20:00,
2013-01-20 11:25:00,60.1,60.1,29.60,North,0,19.6,19.6,100,0.00,CLR,,0.00,WeatherDisplay:10.37,2013-01-20 16:25:00,
2013-01-20 11:30:00,60.4,60.4,29.60,South,184,6.0,30.0,100,0.00,CLR,,0.00,WeatherDisplay:10.37,2013-01-20 16:30:00,
2013-01-20 11:35:00,60.8,60.8,29.60,South,180,19.6,19.6,100,0.00,CLR,,0.00,WeatherDisplay:10.37,2013-01-20 16:35:00,
2013-01-20 11:40:00,59.9,59.9,29.60,South,181,12.0,27.0,100,0.00,CLR,,0.00,WeatherDisplay:10.37,2013-01-20 16:40:00,
2013-01-20 11:45:00,59.9,59.9,29.60,SSW,192,8.0,21.0,100,0.00,CLR,,0.00,WeatherDisplay:10.37,2013-01-20 16:45:00,
2013-01-20 11:50:00,60.4,60.4,29.59,SW,225,12.1,12.1,100,0.00,CLR,,0.00,WeatherDisplay:10.37,2013-01-20 16:50:00,
2013-01-20 11:55:00,60.4,60.4,29.59,South,190,12.0,24.0,100,0.00,CLR,,0.00,WeatherDisplay:10.37,2013-01-20 16:55:00,
2013-01-20 12:00:00,60.6,60.6,29.59,SSE,161,7.0,18.0,100,0.00,CLR,,0.00,WeatherDisplay:10.37,2013-01-20 17:00:00,
2013-01-20 12:05:00,60.1,60.1,29.58,SSE,155,7.0,23.0,100,0.00,CLR,,0.00,WeatherDisplay:10.37,2013-01-20 17:05:00,
2013-01-20 12:10:00,60.1,60.1,29.58,SW,232,6.0,23.0,100,0.00,CLR,,0.00,WeatherDisplay:10.37,2013-01-20 17:10:00,
2013-01-20 12:15:00,60.1,60.1,29.58,South,180,10.4,10.4,100,0.00,CLR,,0.00,WeatherDisplay:10.37,2013-01-20 17:15:00,
2013-01-20 12:20:00,60.3,60.3,29.59,East,90,17.3,17.3,100,0.00,CLR,,0.00,WeatherDisplay:10.37,2013-01-20 17:20:00,
2013-01-20 12:25:00,59.9,59.9,29.59,South,181,12.0,27.0,100,0.00,CLR,,0.00,WeatherDisplay:10.37,2013-01-20 17:25:00,
2013-01-20 12:30:00,59.7,59.7,29.59,South,180,17.3,17.3,100,0.00,CLR,,0.00,WeatherDisplay:10.37,2013-01-20 17:30:00,
2013-01-20 12:35:00,59.7,59.7,29.58,South,180,21.3,21.3,100,0.00,CLR,,0.00,WeatherDisplay:10.37,2013-01-20 17:35:00,
2013-01-20 12:40:00,59.7,59.7,29.58,SW,221,7.0,21.0,100,0.00,CLR,,0.00,WeatherDisplay:10.37,2013-01-20 17:40:00,
2013-01-20 12:45:00,59.5,59.5,29.58,South,180,17.3,17.3,100,0.00,CLR,,0.00,WeatherDisplay:10.37,2013-01-20 17:45:00,
2013-01-20 12:50:00,59.5,59.5,29.58,SSW,210,5.0,18.0,100,0.00,CLR,,0.00,WeatherDisplay:10.37,2013-01-20 17:50:00,
2013-01-20 12:55:00,59.7,59.7,29.58,WSW,244,7.0,21.0,100,0.00,CLR,,0.00,WeatherDisplay:10.37,2013-01-20 17:55:00,
2013-01-20 13:00:00,59.7,59.7,29.58,SSE,158,24.2,24.2,100,0.00,CLR,,0.00,WeatherDisplay:10.37,2013-01-20 18:00:00,
2013-01-20 13:05:00,60.1,60.1,29.58,SE,145,6.0,24.0,100,0.00,CLR,,0.00,WeatherDisplay:10.37,2013-01-20 18:05:00,
2013-01-20 13:10:00,59.5,59.5,29.58,SW,225,18.4,18.4,100,0.00,CLR,,0.00,WeatherDisplay:10.37,2013-01-20 18:10:00,
2013-01-20 13:15:00,59.4,59.4,29.58,NE,45,17.3,17.3,100,0.00,CLR,,0.00,WeatherDisplay:10.37,2013-01-20 18:15:00,
2013-01-20 13:20:00,59.4,59.4,29.57,South,180,21.9,21.9,100,0.00,CLR,,0.00,WeatherDisplay:10.37,2013-01-20 18:20:00,
2013-01-20 13:25:00,59.5,59.5,29.57,ESE,122,10.0,23.0,100,0.00,CLR,,0.00,WeatherDisplay:10.37,2013-01-20 18:25:00,
2013-01-20 13:30:00,59.5,59.5,29.57,SSE,158,23.0,23.0,100,0.00,CLR,,0.00,WeatherDisplay:10.37,2013-01-20 18:30:00,
2013-01-20 13:35:00,60.1,60.1,29.58,South,178,3.0,18.0,100,0.00,CLR,,0.00,WeatherDisplay:10.37,2013-01-20 18:35:00,
2013-01-20 13:40:00,59.5,59.5,29.58,SE,135,17.3,17.3,100,0.00,CLR,,0.00,WeatherDisplay:10.37,2013-01-20 18:40:00,
2013-01-20 13:45:00,59.2,59.2,29.58,SE,135,16.1,16.1,100,0.00,CLR,,0.00,WeatherDisplay:10.37,2013-01-20 18:45:00,
2013-01-20 13:50:00,59.4,59.4,29.58,South,179,9.0,20.0,100,0.00,CLR,,0.00,WeatherDisplay:10.37,2013-01-20 18:50:00,
2013-01-20 13:55:00,59.5,59.5,29.58,SSW,200,3.0,14.0,100,0.00,CLR,,0.00,WeatherDisplay:10.37,2013-01-20 18:55:00,
2013-01-20 14:00:00,59.4,59.4,29.58,NW,316,5.0,13.0,100,0.00,CLR,,0.00,WeatherDisplay:10.37,2013-01-20 19:00:00,
2013-01-20 14:05:00,59.4,59.4,29.58,SW,229,6.0,15.0,100,0.00,CLR,,0.00,WeatherDisplay:10.37,2013-01-20 19:05:00,
2013-01-20 14:10:00,58.6,58.6,29.59,NE,45,12.7,12.7,100,0.00,CLR,,0.00,WeatherDisplay:10.37,2013-01-20 19:10:00,
2013-01-20 14:15:00,57.6,57.6,29.59,South,174,6.0,21.0,100,0.00,CLR,,0.00,WeatherDisplay:10.37,2013-01-20 19:15:00,
2013-01-20 14:20:00,57.0,57.0,29.59,SE,135,21.9,21.9,100,0.00,CLR,,0.00,WeatherDisplay:10.37,2013-01-20 19:20:00,
2013-01-20 14:25:00,57.0,57.0,29.59,SSW,202,19.6,19.6,100,0.00,CLR,,0.00,WeatherDisplay:10.37,2013-01-20 19:25:00,
2013-01-20 14:30:00,56.9,56.9,29.60,South,188,8.0,20.0,100,0.00,CLR,,0.00,WeatherDisplay:10.37,2013-01-20 19:30:00,
2013-01-20 14:35:00,57.2,57.2,29.59,North,0,13.8,13.8,100,0.00,CLR,,0.00,WeatherDisplay:10.37,2013-01-20 19:35:00,
2013-01-20 14:40:00,57.1,57.1,29.60,WNW,293,5.0,20.0,100,0.00,CLR,,0.00,WeatherDisplay:10.37,2013-01-20 19:40:00,
2013-01-20 14:45:00,56.7,56.7,29.60,WNW,300,3.0,15.0,100,0.00,CLR,,0.00,WeatherDisplay:10.37,2013-01-20 19:45:00,
2013-01-20 14:50:00,56.8,56.8,29.60,SSE,158,6.9,6.9,100,0.00,CLR,,0.00,WeatherDisplay:10.37,2013-01-20 19:50:00,
2013-01-20 14:55:00,57.9,57.9,29.60,NW,315,13.8,13.8,100,0.00,CLR,,0.00,WeatherDisplay:10.37,2013-01-20 19:55:00,
2013-01-20 15:00:00,58.3,58.3,29.61,SSW,197,9.0,18.0,100,0.00,CLR,,0.00,WeatherDisplay:10.37,2013-01-20 20:00:00,
2013-01-20 15:05:00,57.4,57.4,29.60,NW,315,17.3,17.3,100,0.00,CLR,,0.00,WeatherDisplay:10.37,2013-01-20 20:05:00,
2013-01-20 15:10:00,57.0,57.0,29.61,SW,233,6.0,14.0,100,0.00,CLR,,0.00,WeatherDisplay:10.37,2013-01-20 20:10:00,
2013-01-20 15:15:00,56.3,56.3,29.61,NW,315,15.0,15.0,100,0.00,CLR,,0.00,WeatherDisplay:10.37,2013-01-20 20:15:00,
2013-01-20 15:20:00,56.5,56.5,29.61,South,180,12.7,12.7,100,0.00,CLR,,0.00,WeatherDisplay:10.37,2013-01-20 20:20:00,
2013-01-20 15:25:00,56.1,56.1,29.62,North,355,3.0,17.0,100,0.00,CLR,,0.00,WeatherDisplay:10.37,2013-01-20 20:25:00,
2013-01-20 15:30:00,55.8,55.8,29.62,NW,326,2.0,11.0,100,0.00,CLR,,0.00,WeatherDisplay:10.37,2013-01-20 20:30:00,
2013-01-20 15:35:00,55.4,55.4,29.62,North,0,9.2,9.2,100,0.00,CLR,,0.00,WeatherDisplay:10.37,2013-01-20 20:35:00,
2013-01-20 15:40:00,55.2,55.2,29.62,NW,311,3.0,9.0,100,0.00,CLR,,0.00,WeatherDisplay:10.37,2013-01-20 20:40:00,
2013-01-20 15:45:00,55.0,55.0,29.63,SE,135,8.1,8.1,100,0.00,CLR,,0.00,WeatherDisplay:10.37,2013-01-20 20:45:00,
2013-01-20 15:50:00,55.0,55.0,29.63,WNW,296,5.0,15.0,100,0.00,CLR,,0.00,WeatherDisplay:10.37,2013-01-20 20:50:00,
2013-01-20 15:55:00,55.0,55.0,29.64,NNW,328,5.0,13.0,100,0.00,CLR,,0.00,WeatherDisplay:10.37,2013-01-20 20:55:00,
2013-01-20 16:00:00,54.7,54.7,29.64,SSE,158,10.4,10.4,100,0.00,CLR,,0.00,WeatherDisplay:10.37,2013-01-20 21:00:00,
2013-01-20 16:05:00,54.7,54.7,29.64,South,180,8.3,8.3,100,0.00,CLR,,0.00,WeatherDisplay:10.37,2013-01-20 21:05:00,
2013-01-20 16:10:00,54.3,54.3,29.64,NW,315,11.5,11.5,100,0.00,CLR,,0.00,WeatherDisplay:10.37,2013-01-20 21:10:00,
2013-01-20 16:15:00,53.8,53.8,29.65,North,0,9.2,9.2,100,0.00,CLR,,0.00,WeatherDisplay:10.37,2013-01-20 21:15:00,
2013-01-20 16:20:00,53.4,53.4,29.65,NW,315,6.9,6.9,100,0.00,CLR,,0.00,WeatherDisplay:10.37,2013-01-20 21:20:00,
2013-01-20 16:25:00,52.9,52.9,29.66,SW,225,8.1,8.1,100,0.00,CLR,,0.00,WeatherDisplay:10.37,2013-01-20 21:25:00,
2013-01-20 16:30:00,52.5,52.5,29.66,NW,315,8.1,8.1,100,0.00,CLR,,0.00,WeatherDisplay:10.37,2013-01-20 21:30:00,
2013-01-20 16:35:00,52.0,52.0,29.67,NW,315,12.7,12.7,100,0.00,CLR,,0.00,WeatherDisplay:10.37,2013-01-20 21:35:00,
2013-01-20 16:40:00,51.8,51.8,29.67,South,180,16.1,16.1,100,0.00,CLR,,0.00,WeatherDisplay:10.37,2013-01-20 21:40:00,
2013-01-20 16:45:00,51.8,51.8,29.67,North,0,9.2,9.2,100,0.00,CLR,,0.00,WeatherDisplay:10.37,2013-01-20 21:45:00,
2013-01-20 16:50:00,51.4,51.4,29.67,NW,315,12.1,12.1,100,0.00,CLR,,0.00,WeatherDisplay:10.37,2013-01-20 21:50:00,
2013-01-20 16:55:00,51.3,51.3,29.68,SSE,158,10.4,10.4,100,0.00,CLR,,0.00,WeatherDisplay:10.37,2013-01-20 21:55:00,
2013-01-20 17:00:00,50.9,50.9,29.68,South,180,8.1,8.1,100,0.00,CLR,,0.00,WeatherDisplay:10.37,2013-01-20 22:00:00,
2013-01-20 17:05:00,50.7,50.7,29.69,East,90,17.3,17.3,100,0.00,CLR,,0.00,WeatherDisplay:10.37,2013-01-20 22:05:00,
2013-01-20 17:10:00,50.5,50.5,29.69,NW,315,15.0,15.0,100,0.00,CLR,,0.00,WeatherDisplay:10.37,2013-01-20 22:10:00,
2013-01-20 17:15:00,50.4,50.4,29.69,SW,225,9.2,9.2,100,0.00,CLR,,0.00,WeatherDisplay:10.37,2013-01-20 22:15:00,
2013-01-20 17:20:00,50.2,50.2,29.70,North,0,12.7,12.7,100,0.00,CLR,,0.00,WeatherDisplay:10.37,2013-01-20 22:20:00,
2013-01-20 17:25:00,50.0,50.0,29.70,East,90,15.0,15.0,100,0.00,CLR,,0.00,WeatherDisplay:10.37,2013-01-20 22:25:00,
2013-01-20 17:30:00,50.0,50.0,29.71,WNW,292,12.7,12.7,100,0.00,CLR,,0.00,WeatherDisplay:10.37,2013-01-20 22:30:00,
2013-01-20 17:35:00,49.6,49.6,29.71,NW,315,6.9,6.9,100,0.00,CLR,,0.00,WeatherDisplay:10.37,2013-01-20 22:35:00,
2013-01-20 17:40:00,49.5,49.5,29.72,West,270,5.8,5.8,100,0.00,CLR,,0.00,WeatherDisplay:10.37,2013-01-20 22:40:00,
2013-01-20 17:45:00,48.7,48.7,29.72,North,0,8.1,8.1,100,0.00,CLR,,0.00,WeatherDisplay:10.37,2013-01-20 22:45:00,
2013-01-20 17:50:00,48.6,48.6,29.73,NW,315,8.1,8.1,100,0.00,CLR,,0.00,WeatherDisplay:10.37,2013-01-20 22:50:00,
2013-01-20 17:55:00,48.2,48.2,29.73,NW,315,8.1,8.1,100,0.00,CLR,,0.00,WeatherDisplay:10.37,2013-01-20 22:55:00,
2013-01-20 18:00:00,47.8,47.8,29.74,North,0,4.6,4.6,100,0.00,CLR,,0.00,WeatherDisplay:10.37,2013-01-20 23:00:00,
2013-01-20 18:05:00,47.5,47.5,29.74,West,270,8.1,8.1,100,0.00,CLR,,0.00,WeatherDisplay:10.37,2013-01-20 23:05:00,
2013-01-20 18:10:00,47.3,47.3,29.74,North,0,12.7,12.7,100,0.00,CLR,,0.00,WeatherDisplay:10.37,2013-01-20 23:10:00,
2013-01-20 18:15:00,46.8,46.8,29.74,NW,315,8.1,8.1,100,0.00,CLR,,0.00,WeatherDisplay:10.37,2013-01-20 23:15:00,
2013-01-20 18:20:00,46.4,46.4,29.75,North,0,10.4,10.4,100,0.00,CLR,,0.00,WeatherDisplay:10.37,2013-01-20 23:20:00,
2013-01-20 18:25:00,46.2,46.2,29.75,NW,315,5.8,5.8,100,0.00,,,0.00,WeatherDisplay:10.37,2013-01-20 23:25:00,
2013-01-20 18:30:00,46.0,46.0,29.75,North,0,10.4,10.4,100,0.00,,,0.00,WeatherDisplay:10.37,2013-01-20 23:30:00,
2013-01-20 18:35:00,45.9,45.9,29.75,West,270,8.1,8.1,100,0.00,,,0.00,WeatherDisplay:10.37,2013-01-20 23:35:00,
2013-01-20 18:40:00,45.7,45.7,29.76,East,90,12.7,12.7,100,0.00,,,0.00,WeatherDisplay:10.37,2013-01-20 23:40:00,
2013-01-20 18:46:00,45.7,45.7,29.76,NW,315,8.1,8.1,100,0.00,,,0.00,WeatherDisplay:10.37,2013-01-20 23:46:00,
2013-01-20 18:51:00,45.3,45.3,29.77,NW,315,8.1,8.1,100,0.00,,,0.00,WeatherDisplay:10.37,2013-01-20 23:51:00,
2013-01-20 18:56:00,45.0,45.0,29.77,NW,315,5.8,5.8,100,0.00,,,0.00,WeatherDisplay:10.37,2013-01-20 23:56:00,
2013-01-20 19:01:00,44.8,44.8,29.77,West,270,10.4,10.4,100,0.00,CLR,,0.00,WeatherDisplay:10.37,2013-01-21 00:01:00,
2013-01-20 19:06:00,44.6,44.6,29.77,SW,225,11.5,11.5,100,0.00,,,0.00,WeatherDisplay:10.37,2013-01-21 00:06:00,
2013-01-20 19:11:00,44.4,44.4,29.77,SE,135,8.1,8.1,100,0.00,,,0.00,WeatherDisplay:10.37,2013-01-21 00:11:00,
2013-01-20 19:16:00,44.2,44.2,29.78,NW,315,6.9,6.9,100,0.00,,,0.00,WeatherDisplay:10.37,2013-01-21 00:16:00,
2013-01-20 19:21:00,44.1,44.1,29.78,NNW,338,5.8,5.8,100,0.00,,,0.00,WeatherDisplay:10.37,2013-01-21 00:21:00,
2013-01-20 19:26:00,43.3,43.3,29.78,NW,315,6.9,6.9,100,0.00,,,0.00,WeatherDisplay:10.37,2013-01-21 00:26:00,
2013-01-20 19:31:00,43.0,43.0,29.78,NW,315,8.1,8.1,100,0.00,,,0.00,WeatherDisplay:10.37,2013-01-21 00:31:00,
2013-01-20 19:36:00,42.8,42.8,29.79,NW,315,6.9,6.9,100,0.00,,,0.00,WeatherDisplay:10.37,2013-01-21 00:36:00,
2013-01-20 19:41:00,42.4,42.4,29.79,North,0,6.9,6.9,100,0.00,,,0.00,WeatherDisplay:10.37,2013-01-21 00:41:00,
2013-01-20 19:46:00,42.3,42.3,29.79,North,0,8.1,8.1,100,0.00,,,0.00,WeatherDisplay:10.37,2013-01-21 00:46:00,
2013-01-20 19:51:00,42.3,42.3,29.80,NW,315,5.8,5.8,100,0.00,,,0.00,WeatherDisplay:10.37,2013-01-21 00:51:00,
2013-01-20 19:56:00,41.9,41.9,29.80,North,0,12.7,12.7,100,0.00,,,0.00,WeatherDisplay:10.37,2013-01-21 00:56:00,
2013-01-20 20:01:00,41.7,41.7,29.81,North,0,10.4,0.0,100,0.00,,,0.00,WeatherDisplay:10.37,2013-01-21 01:01:00,
2013-01-20 20:06:00,41.4,41.4,29.80,NW,315,5.8,5.8,100,0.00,,,0.00,WeatherDisplay:10.37,2013-01-21 01:06:00,
2013-01-20 20:11:00,41.0,41.0,29.81,East,90,6.9,6.9,100,0.00,,,0.00,WeatherDisplay:10.37,2013-01-21 01:11:00,
2013-01-20 20:16:00,41.0,41.0,29.81,NW,315,10.4,10.4,100,0.00,,,0.00,WeatherDisplay:10.37,2013-01-21 01:16:00,
2013-01-20 20:21:00,40.6,40.6,29.82,North,0,9.2,9.2,100,0.00,,,0.00,WeatherDisplay:10.37,2013-01-21 01:21:00,
2013-01-20 20:26:00,40.5,40.5,29.82,NW,315,5.8,5.8,100,0.00,,,0.00,WeatherDisplay:10.37,2013-01-21 01:26:00,
2013-01-20 20:31:00,40.3,40.3,29.82,NNW,338,8.1,8.1,100,0.00,,,0.00,WeatherDisplay:10.37,2013-01-21 01:31:00,
2013-01-20 20:36:00,40.1,40.1,29.83,NW,315,5.8,5.8,100,0.00,,,0.00,WeatherDisplay:10.37,2013-01-21 01:36:00,
2013-01-20 20:41:00,39.7,39.7,29.83,NW,315,6.0,6.0,100,0.00,,,0.00,WeatherDisplay:10.37,2013-01-21 01:41:00,
2013-01-20 20:46:00,39.6,39.6,29.83,NW,315,6.9,6.9,100,0.00,,,0.00,WeatherDisplay:10.37,2013-01-21 01:46:00,
2013-01-20 20:52:00,39.4,39.4,29.84,North,0,11.5,11.5,100,0.00,,,0.00,WeatherDisplay:10.37,2013-01-21 01:52:00,
2013-01-20 20:57:00,39.2,39.2,29.84,NW,315,5.8,5.8,100,0.00,,,0.00,WeatherDisplay:10.37,2013-01-21 01:57:00,
2013-01-20 21:02:00,39.0,39.0,29.85,NW,315,6.9,6.9,100,0.00,,,0.00,WeatherDisplay:10.37,2013-01-21 02:02:00,
2013-01-20 21:07:00,38.7,38.7,29.85,East,90,4.6,4.6,100,0.00,,,0.00,WeatherDisplay:10.37,2013-01-21 02:07:00,
2013-01-20 21:12:00,38.3,38.3,29.84,SSE,158,5.8,5.8,100,0.00,,,0.00,WeatherDisplay:10.37,2013-01-21 02:12:00,
2013-01-20 21:17:00,38.1,38.1,29.85,NW,315,10.4,10.4,100,0.00,,,0.00,WeatherDisplay:10.37,2013-01-21 02:17:00,
2013-01-20 21:22:00,38.1,38.1,29.85,NW,315,5.8,5.8,100,0.00,,,0.00,WeatherDisplay:10.37,2013-01-21 02:22:00,
2013-01-20 21:27:00,37.9,37.9,29.85,NW,315,4.6,4.6,100,0.00,,,0.00,WeatherDisplay:10.37,2013-01-21 02:27:00,
2013-01-20 21:33:00,37.6,37.6,29.86,NW,315,5.8,5.8,100,0.00,,,0.00,WeatherDisplay:10.37,2013-01-21 02:33:00,
2013-01-20 21:38:00,37.4,37.4,29.86,NW,315,9.2,9.2,100,0.00,,,0.00,WeatherDisplay:10.37,2013-01-21 02:38:00,
2013-01-20 21:43:00,37.4,37.4,29.86,NNW,338,4.6,4.6,100,0.00,,,0.00,WeatherDisplay:10.37,2013-01-21 02:43:00,
2013-01-20 21:48:00,37.0,37.0,29.85,NW,315,8.1,8.1,100,0.00,,,0.00,WeatherDisplay:10.37,2013-01-21 02:48:00,
2013-01-20 21:53:00,37.0,37.0,29.85,NW,315,5.8,5.8,100,0.00,,,0.00,WeatherDisplay:10.37,2013-01-21 02:53:00,
2013-01-20 21:58:00,36.7,36.7,29.85,SW,225,6.9,6.9,100,0.00,,,0.00,WeatherDisplay:10.37,2013-01-21 02:58:00,
2013-01-20 22:03:00,36.5,36.5,29.85,WNW,292,5.8,5.8,100,0.00,,,0.00,WeatherDisplay:10.37,2013-01-21 03:03:00,
2013-01-20 22:08:00,36.3,36.3,29.87,NW,315,3.5,3.5,100,0.00,,,0.00,WeatherDisplay:10.37,2013-01-21 03:08:00,
2013-01-20 22:13:00,36.0,36.0,29.87,North,0,3.5,0.0,100,0.00,,,0.00,WeatherDisplay:10.37,2013-01-21 03:13:00,
2013-01-20 22:18:00,35.6,35.6,29.87,NW,315,4.6,4.6,100,0.00,,,0.00,WeatherDisplay:10.37,2013-01-21 03:18:00,
2013-01-20 22:23:00,35.4,35.4,29.88,West,270,3.5,3.5,100,0.00,,,0.00,WeatherDisplay:10.37,2013-01-21 03:23:00,
2013-01-20 22:28:00,35.1,35.1,29.88,North,0,3.5,3.5,100,0.00,,,0.00,WeatherDisplay:10.37,2013-01-21 03:28:00,
2013-01-20 22:33:00,35.1,35.1,29.88,NW,315,5.8,5.8,100,0.00,,,0.00,WeatherDisplay:10.37,2013-01-21 03:33:00,
2013-01-20 22:38:00,35.1,35.1,29.88,NW,315,8.1,8.1,100,0.00,,,0.00,WeatherDisplay:10.37,2013-01-21 03:38:00,
2013-01-20 22:43:00,35.1,35.1,29.89,West,270,4.6,0.0,100,0.00,,,0.00,WeatherDisplay:10.37,2013-01-21 03:43:00,
2013-01-20 22:48:00,34.9,34.9,29.89,NW,315,6.9,6.9,100,0.00,,,0.00,WeatherDisplay:10.37,2013-01-21 03:48:00,
2013-01-20 22:53:00,34.7,34.7,29.89,NW,315,5.8,5.8,100,0.00,,,0.00,WeatherDisplay:10.37,2013-01-21 03:53:00,
2013-01-20 22:58:00,34.7,34.7,29.89,SW,225,5.8,5.8,100,0.00,,,0.00,WeatherDisplay:10.37,2013-01-21 03:58:00,
2013-01-20 23:03:00,34.5,34.5,29.89,NW,315,6.9,6.9,100,0.00,,,0.00,WeatherDisplay:10.37,2013-01-21 04:03:00,
2013-01-20 23:08:00,34.5,34.5,29.90,NW,315,6.9,6.9,100,0.00,,,0.00,WeatherDisplay:10.37,2013-01-21 04:08:00,
2013-01-20 23:13:00,34.3,34.3,29.90,NW,315,4.5,4.5,100,0.00,,,0.00,WeatherDisplay:10.37,2013-01-21 04:13:00,
2013-01-20 23:18:00,34.3,34.3,29.90,West,270,6.9,6.9,100,0.00,,,0.00,WeatherDisplay:10.37,2013-01-21 04:18:00,
2013-01-20 23:23:00,34.2,34.2,29.90,West,270,5.8,5.8,100,0.00,,,0.00,WeatherDisplay:10.37,2013-01-21 04:23:00,
2013-01-20 23:28:00,34.2,34.2,29.90,SE,135,1.1,0.0,100,0.00,,,0.00,WeatherDisplay:10.37,2013-01-21 04:28:00,
2013-01-20 23:33:00,34.0,34.0,29.90,WNW,292,3.5,3.5,100,0.00,,,0.00,WeatherDisplay:10.37,2013-01-21 04:33:00,
2013-01-20 23:38:00,33.6,33.6,29.90,WSW,248,4.6,4.6,100,0.00,,,0.00,WeatherDisplay:10.37,2013-01-21 04:38:00,
2013-01-20 23:43:00,33.4,33.4,29.90,WNW,292,3.5,3.5,100,0.00,,,0.00,WeatherDisplay:10.37,2013-01-21 04:43:00,
2013-01-20 23:48:00,33.3,33.3,29.90,NW,315,4.5,4.5,100,0.00,,,0.00,WeatherDisplay:10.37,2013-01-21 04:48:00,
2013-01-20 23:53:00,33.3,33.3,29.90,NW,315,4.6,4.6,100,0.00,,,0.00,WeatherDisplay:10.37,2013-01-21 04:53:00,
2013-01-20 23:58:00,33.3,33.3,29.90,NW,315,5.8,5.8,100,0.00,,,0.00,WeatherDisplay:10.37,2013-01-21 04:58:00,